sat.trackr.live / text

‹ back to catalog

KUIPER-00127

NORAD 65956 · 2025-228K

PAYLOAD ACTIVE UNKNOWN

§ Identity

Operator
Country
US
Launch date
2025-10-14
Launch site
AFETR
Launch vehicle
Mass (kg)
RCS (m²)

External: N2YO · Heavens-Above · Gunter

§ Orbital elements

Epoch: 2026-09-20T06:34:14.660256Z

Period
97.30 min
Inclination
51.9015°
Eccentricity
0.0000539
Mean motion
14.79926478 rev/d
Perigee alt
629.2 km
Apogee alt
629.9 km
Semi-major
7,007.7 km
B*
-8.5075e-5
RAAN
212.6129°
Arg perigee
64.7127°
Mean anomaly
295.3891°
Rev number
5,215

§ Raw data

KUIPER-001271 65956U 25228K   26263.27378079 -.00000869  00000+0 -85075-4 0  99952 65956  51.9015 212.6129 0000539  64.7127 295.3891 14.79926478 52158

JSON: /api/v1/satellites/65956 · /tle

For live sub-satellite position, see the globe view (requires WebGL).

§ Visibility from observer

Set your observer location to see the next 7 days of passes ≥ 10°. The values pass through the URL so the page stays shareable.

No JS? Fill the form by hand. The geolocation button needs JavaScript.